Location: Napier
(39.4830°S, 176.9170°E)
Time: 10:13:41
(UTC+12:00)

Cosmos 1151 Rocket - Pass Details

Date: 24 January 2019
Orbit: 593 x 615 km, 82.5° (Epoch: 18 April)

Event Time Altitude Azimuth Distance (km) Brightness Sun altitude
Rises 21:48:41 0° 350° (N) 2,829 6.2 -12.7°
Reaches altitude 10° 21:50:53 10° 348° (NNW) 1,937 5.3 -13.0°
Maximum altitude 21:55:09 74° 262° (W) 635 3.2 -13.7°
Drops below altitude 10° 21:59:32 10° 176° (S) 1,977 6.2 -14.3°
Sets 22:01:47 0° 174° (S) 2,893 7.0 -14.6°
